Weather History for Fort Leonard Wood, MO

Change the Weather History Date:

Wednesday, May 8, 2013

  Actual Average Record
Temperature  
Mean Temperature 64 °F -  
Max Temperature 78 °F 73 °F 93 °F (2000)
Min Temperature 51 °F 55 °F 48 °F (2001)
Degree Days  
Heating Degree Days 2    
Growing Degree Days 14 (Base 50)    
Moisture  
Dew Point 55 °F    
Average Humidity 71    
Maximum Humidity 100    
Minimum Humidity 40    
Precipitation  
Precipitation 0.00 in - - ()
Sea Level Pressure  
Sea Level Pressure 30.02 in    
Wind  
Wind Speed 6 mph (SSE)    
Max Wind Speed 12 mph    
Max Gust Speed -    
Visibility 10 miles    
Events      
Averages and records for this station are not official NWS values.
T = Trace of Precipitation, MM = Missing Value Source: NWS Daily Summary

Daily Weather History Graph

Daily Weather History Graph

Search for Another Location

Airport:

Trip Planner

Search our weather history database for the weather conditions in past years. The results will help you decide how hot, cold, wet, or windy it might be!

Date:

Astronomy

May. 08, 2013 Rise Set
Actual Time 6:05 AM CDT 8:05 PM CDT
Civil Twilight 5:36 AM CDT 8:34 PM CDT
Nautical Twilight 5:01 AM CDT 9:09 PM CDT
Astronomical Twilight 4:23 AM CDT 9:47 PM CDT
Moon 5:11 AM CDT (5/8) 7:05 PM CDT (5/8)
Length of Visible Light 14h 58m
Length of Day
14h 00m
Waning Crescent, 2% of the Moon is Illuminated
May 8
Waning Crescent
May 9
New
May 17
First Quarter
May 24
Full
May 31
Last Quarter

Hourly Weather History & Observations

Time (CDT) Temp. Dew Point Humidity Pressure Visibility Wind Dir Wind Speed Gust Speed Precip Events Conditions
12:58 AM 57.4 °F 53.8 °F 88% 30.01 in 10.0 mi SE 5.8 mph - N/A   Clear
1:58 AM 55.4 °F 53.2 °F 92% 30.01 in 10.0 mi SSE 5.8 mph - N/A   Clear
2:58 AM 54.5 °F 53.1 °F 95% 30.01 in 10.0 mi SSE 4.6 mph - N/A   Clear
3:58 AM 53.4 °F 52.5 °F 97% 30.00 in 10.0 mi SSE 4.6 mph - N/A   Clear
4:58 AM 52.7 °F 52.5 °F 99% 30.01 in 10.0 mi SE 5.8 mph - N/A   Clear
5:58 AM 51.8 °F 51.8 °F 100% 30.01 in 10.0 mi South 4.6 mph - N/A   Clear
6:58 AM 53.6 °F 53.6 °F 100% 30.04 in 10.0 mi SSE 4.6 mph - N/A   Clear
7:58 AM 60.1 °F 55.4 °F 85% 30.04 in 10.0 mi SSE 2.3 mph - N/A   Clear
8:58 AM 68.5 °F 55.4 °F 63% 30.05 in 10.0 mi SSW 5.8 mph - N/A   Clear
9:58 AM 73.8 °F 53.8 °F 50% 30.05 in 10.0 mi WSW 5.8 mph - N/A   Clear
10:58 AM 76.1 °F 53.4 °F 45% 30.06 in 10.0 mi Variable 4.6 mph - N/A   Clear
11:58 AM 76.8 °F 51.1 °F 40% 30.05 in 10.0 mi WSW 8.1 mph - N/A   Mostly Cloudy
12:58 PM 75.9 °F 51.3 °F 42% 30.04 in 10.0 mi West 4.6 mph - N/A   Mostly Cloudy
1:55 PM 72.5 °F 53.1 °F 50% 30.03 in 10.0 mi WNW 10.4 mph - N/A   Mostly Cloudy
2:12 PM 71.6 °F 53.6 °F 53% 30.06 in 10.0 mi West 8.1 mph - N/A   Light Drizzle
2:20 PM 71.6 °F 53.6 °F 53% 30.06 in 10.0 mi WNW 11.5 mph - N/A   Mostly Cloudy
2:25 PM 71.6 °F 53.6 °F 53% 30.06 in 10.0 mi WNW 10.4 mph - N/A   Light Drizzle
2:58 PM 68.4 °F 56.1 °F 65% 30.06 in 10.0 mi WNW 5.8 mph - 0.00 in   Light Drizzle
3:11 PM 68.0 °F 55.4 °F 64% 30.05 in 10.0 mi Variable 2.3 mph - N/A   Mostly Cloudy
3:21 PM 68.0 °F 57.2 °F 68% 30.05 in 10.0 mi Variable 2.3 mph - N/A   Light Drizzle
3:46 PM 66.2 °F 59.0 °F 78% 30.02 in 4.0 mi Variable 2.3 mph - N/A   Haze
3:58 PM 66.9 °F 59.5 °F 77% 29.99 in 10.0 mi ESE 10.4 mph - 0.00 in   Mostly Cloudy
4:58 PM 69.4 °F 58.1 °F 67% 30.00 in 10.0 mi NE 3.5 mph - N/A   Mostly Cloudy
5:58 PM 72.5 °F 59.0 °F 62% 30.01 in 10.0 mi SE 4.6 mph - N/A   Mostly Cloudy
6:58 PM 70.2 °F 59.0 °F 68% 30.00 in 10.0 mi East 4.6 mph - N/A   Overcast
7:58 PM 69.1 °F 58.1 °F 68% 29.97 in 10.0 mi ESE 6.9 mph - N/A   Overcast
8:58 PM 66.0 °F 57.4 °F 74% 29.97 in 10.0 mi East 6.9 mph - N/A   Scattered Clouds
9:58 PM 64.8 °F 57.9 °F 78% 29.97 in 10.0 mi ESE 9.2 mph - N/A   Clear
10:58 PM 63.5 °F 57.9 °F 82% 29.96 in 10.0 mi ESE 6.9 mph - N/A   Partly Cloudy
11:58 PM 62.1 °F 57.9 °F 86% 29.98 in 10.0 mi SSE 8.1 mph - N/A   Mostly Cloudy